Terminal Aerodrome Forecast
Issued by NWS

Home | Current Version | Previous Version | Text Only | Print | Product List | Glossary On
Versions: 1 2 3 4 5 6 7 8 9 10 11 12 13
000
FTUS42 TJSJ 070539
TAFNCM
TAF
TNCM 070539Z 0706/0806 08009KT P6SM SCT018
     FM071200 09015KT P6SM SCT025
     FM072300 09010KT P6SM FEW020=

USA.gov is the U.S. government's official web portal to all federal, state and local government web resources and services.